Waarnemingen

Advertentie
Mijn weer
Biarritz, Frankrijk (7602): temperatuur & dauwpunt: 23.03.2017 21:00:00 - 29.03.2017 21:00:00 (CEST)Biarritz, Frankrijk (7602): temperatuur 5cm: 23.03.2017 21:00:00 - 29.03.2017 21:00:00 (CEST)Biarritz, Frankrijk (7602): temperatuur -20cm & temperatuur -100cm: 23.03.2017 21:00:00 - 29.03.2017 21:00:00 (CEST)Biarritz, Frankrijk (7602): windsnelheid & windstoten: 23.03.2017 21:00:00 - 29.03.2017 21:00:00 (CEST)Biarritz, Frankrijk (7602): windrichting: 23.03.2017 21:00:00 - 29.03.2017 21:00:00 (CEST)Biarritz, Frankrijk (7602): luchtdruk: 23.03.2017 21:00:00 - 29.03.2017 21:00:00 (CEST)Biarritz, Frankrijk (7602): zicht: 23.03.2017 21:00:00 - 29.03.2017 21:00:00 (CEST)Biarritz, Frankrijk (7602): Zonneschijnduur: 23.03.2017 21:00:00 - 29.03.2017 21:00:00 (CEST)Biarritz, Frankrijk (7602): neerslag: 23.03.2017 21:00:00 - 29.03.2017 21:00:00 (CEST)
Datum & Tijd tt [°C] td [°C] tt 5cm [°C] tt -20cm [°C] tt -100cm [°C] ff [km/u] ff [kn] fx [km/u] fx [kn] dd ppp [hPa] vv [km] sd [min] rr [mm]
29.03.2017 21:00:00 19,2 5,6 15,6 14,3 12,0 11 6 17 9 ONO 1022,7 60 4 0,0
29.03.2017 20:00:00 21,4 5,3 20,7 14,2 12,0 10 6 19 11 O 1022,5 60 54 0,0
29.03.2017 19:00:00 23,3 5,7 24,8 14,1 12,0 14 8 21 11 ONO 1022,2 56 58 0,0
29.03.2017 18:00:00 23,8 5,2 26,6 13,9 12,0 14 8 27 14 ONO 1022,0 49 60 0,0
29.03.2017 17:00:00 24,1 5,4 28,4 13,5 11,9 11 6 25 13 O 1022,3 19 60 0,0
29.03.2017 16:00:00 23,6 6,4 27,0 13,0 11,9 17 9 29 15 ONO 1022,8 58 60 0,0
29.03.2017 15:00:00 23,3 8,2 27,4 12,6 11,9 17 9 31 17 O 1023,7 20 60 0,0
29.03.2017 14:00:00 22,9 6,6 25,9 12,3 11,9 11 6 24 13 O 1024,6 19 60 0,0
29.03.2017 13:00:00 21,3 9,2 25,7 12,0 11,9 10 6 21 12 ONO 1025,5 20 60 0,0
29.03.2017 12:00:00 20,4 6,3 23,6 11,9 11,9 8 4 15 8 O 1026,0 20 60 0,0
29.03.2017 11:00:00 18,0 8,5 19,9 11,8 11,9 6 4 12 6 OZO 1026,4 58 60 0,0
29.03.2017 10:00:00 14,9 7,9 14,6 11,8 11,9 5 3 13 7 ZO 1026,4 33 60 0,0
29.03.2017 09:00:00 10,9 7,0 6,5 11,9 11,9 9 5 14 8 ZO 1026,2 44 46 0,0
29.03.2017 08:00:00 8,0 5,3 5,6 12,1 11,9 8 4 13 7 ZO 1026,0 20 0 0,0
29.03.2017 07:00:00 9,6 5,2 7,1 12,2 11,9 7 4 12 6 ZZO 1025,6 60 0 0,0
29.03.2017 06:00:00 9,6 5,4 7,5 12,3 11,9 7 4 12 7 ZZO 1025,4 60 0 0,0
29.03.2017 05:00:00 9,6 5,4 7,6 12,4 11,9 9 5 15 8 ZZO 1025,5 60 0 0,0
29.03.2017 04:00:00 10,8 6,0 9,1 12,5 11,9 10 5 16 9 ZO 1026,0 60 0 0,0
29.03.2017 03:00:00 11,5 6,2 9,7 12,5 11,8 7 4 16 9 ZZO 1026,3 60 0 0,0
29.03.2017 02:00:00 12,2 6,2 9,5 12,7 11,9 10 6 16 9 ZZO 1026,6 60 0 0,0
29.03.2017 01:00:00 11,7 6,2 9,0 12,7 11,8 8 4 15 8 ZZO 1026,9 60 0 0,0
29.03.2017 00:00:00 12,6 6,2 10,8 12,8 11,8 10 5 15 8 ZZO 1026,9 60 0 0,0
28.03.2017 23:00:00 12,9 6,5 10,2 12,9 11,9 10 6 14 8 ZZO 1026,9 60 0 0,0
28.03.2017 22:00:00 14,3 6,4 8,2 12,9 11,8 9 5 11 6 ZZO 1026,7 58 0 0,0
28.03.2017 21:00:00 14,8 7,6 9,6 13,0 11,8 5 3 8 4 O 1026,3 45 6 0,0
28.03.2017 20:00:00 16,4 9,1 16,8 13,0 11,8 7 4 13 7 N 1025,9 47 60 0,0
28.03.2017 19:00:00 18,2 6,4 21,3 12,9 11,8 8 5 14 7 NNW 1025,5 56 60 0,0
28.03.2017 18:00:00 17,5 7,2 22,2 12,7 11,8 9 5 16 8 N 1025,4 48 60 0,0
28.03.2017 17:00:00 16,8 8,0 22,1 12,5 11,8 11 6 18 10 NNW 1025,6 55 60 0,0
28.03.2017 16:00:00 16,5 8,7 22,0 12,2 11,8 13 7 21 11 NNW 1025,9 60 60 0,0
28.03.2017 15:00:00 16,5 8,2 21,8 11,9 11,8 15 8 27 15 NNW 1026,4 20 60 0,0
28.03.2017 14:00:00 16,9 7,8 21,6 11,7 11,8 16 9 27 14 NW 1026,6 49 60 0,0
28.03.2017 13:00:00 16,3 7,5 20,8 11,5 11,8 16 9 25 13 NW 1026,8 37 60 0,0
28.03.2017 12:00:00 16,2 8,7 21,2 11,3 11,8 17 9 29 16 NW 1026,6 47 60 0,0
28.03.2017 11:00:00 17,0 6,5 20,8 11,3 11,8 12 7 24 13 WZW 1026,1 54 60 0,0
28.03.2017 10:00:00 15,4 7,4 16,9 11,3 11,8 9 5 20 11 ZZW 1025,3 54 60 0,0
28.03.2017 09:00:00 12,7 6,9 9,1 11,3 11,8 6 3 14 7 ZZW 1024,9 19 44 0,0
28.03.2017 08:00:00 11,5 6,0 9,0 11,4 11,8 7 4 20 11 ZZW 1023,8 60 0 0,0
28.03.2017 07:00:00 12,2 6,2 10,9 11,4 11,8 10 5 23 13 ZZW 1023,1 60 0 0,0
28.03.2017 06:00:00 12,6 6,2 11,3 11,5 11,8 10 5 31 17 ZZW 1022,7 60 0 0,0
28.03.2017 05:00:00 13,2 6,3 12,3 11,5 11,8 12 6 27 15 ZZW 1022,4 60 0 0,0
28.03.2017 04:00:00 13,2 6,3 12,1 11,6 11,8 10 6 26 14 ZZW 1022,4 60 0 0,0
28.03.2017 03:00:00 13,6 5,7 12,6 11,6 11,8 8 5 25 13 ZZW 1022,4 60 0 0,0
28.03.2017 02:00:00 14,1 5,7 13,3 11,6 11,8 14 7 31 17 ZZW 1022,2 60 0 0,0
28.03.2017 01:00:00 14,0 5,6 13,1 11,7 11,8 11 6 29 16 ZZW 1021,9 60 0 0,0
28.03.2017 00:00:00 13,9 5,5 13,0 11,7 11,8 10 6 22 12 ZZW 1021,5 60 0 0,0
27.03.2017 23:00:00 14,1 5,4 12,8 11,7 11,8 10 6 23 13 ZZW 1021,0 60 0 0,0
27.03.2017 22:00:00 14,6 5,7 13,4 11,8 11,8 10 5 21 12 Z 1020,2 60 0 0,0
27.03.2017 21:00:00 15,1 5,9 14,2 11,8 11,8 9 5 22 12 Z 1019,4 60 5 0,0
27.03.2017 20:00:00 15,8 5,7 14,3 11,7 11,8 8 5 31 17 ZZW 1019,1 60 26 0,0
27.03.2017 19:00:00 17,8 5,4 20,2 11,6 11,8 14 8 36 19 ZZW 1018,3 53 60 0,0
27.03.2017 18:00:00 18,1 5,6 21,3 11,5 11,8 16 9 43 23 Z 1018,1 42 60 0,0
27.03.2017 17:00:00 17,8 5,7 18,2 11,3 11,8 22 12 43 23 Z 1017,8 53 53 0,0
27.03.2017 16:00:00 17,4 6,3 17,3 11,2 11,8 20 11 41 22 Z 1018,1 59 35 0,0
27.03.2017 15:00:00 14,8 6,4 11,2 11,2 11,8 19 10 36 19 Z 1018,0 39 0 0,2
27.03.2017 14:00:00 13,6 5,2 11,6 11,1 11,8 14 8 39 21 Z 1018,3 44 0 0,0
27.03.2017 13:00:00 14,3 3,7 14,5 11,1 11,8 22 12 50 27 Z 1017,4 55 0 0,0
27.03.2017 12:00:00 14,7 4,4 14,9 11,1 11,8 24 13 51 28 Z 1016,8 49 0 0,0
27.03.2017 11:00:00 14,6 4,6 14,7 11,2 11,8 15 8 44 24 ZZW 1015,6 60 0 0,0
27.03.2017 10:00:00 15,1 2,3 14,8 11,2 11,7 22 12 57 31 Z 1014,8 60 0 0,0
27.03.2017 09:00:00 15,4 1,5 14,0 11,3 11,8 22 12 48 26 Z 1014,3 60 0 0,0
27.03.2017 08:00:00 14,8 1,7 13,0 11,3 11,8 16 8 32 17 ZZW 1014,1 60 0 0,0
27.03.2017 07:00:00 14,5 1,4 9,7 11,4 11,8 7 4 17 9 Z 1013,6 60 0 0,0
27.03.2017 06:00:00 11,3 3,6 8,3 11,4 11,7 5 3 10 5 ZZO 1013,2 60 0 0,0
27.03.2017 05:00:00 9,9 6,1 9,1 11,5 11,8 7 4 20 11 OZO 1013,3 60 0 0,0
27.03.2017 04:00:00 10,7 6,3 9,7 11,5 11,8 4 2 15 8 ZZO 1013,6 60 0 0,0
27.03.2017 03:00:00 10,7 6,3 9,8 11,6 11,7 11 6 17 9 O 1013,7 60 0 0,0
27.03.2017 02:00:00 11,3 5,8 9,1 11,7 11,8 13 7 21 12 ONO 1013,9 60 0 0,0
27.03.2017 01:00:00 10,8 5,3 8,1 11,8 11,8 11 6 16 8 ONO 1013,9 60 0 0,0
27.03.2017 00:00:00 12,7 5,4 8,7 11,8 11,7 6 3 14 8 O 1013,7 54 0 0,0
26.03.2017 23:00:00 12,1 5,3 8,6 11,9 11,8 11 6 18 10 O 1013,9 60 0 0,0
26.03.2017 22:00:00 14,0 5,1 9,9 11,9 11,8 10 6 14 8 O 1014,0 60 0 0,0
26.03.2017 21:00:00 15,4 5,0 11,5 11,9 11,8 8 4 20 11 ONO 1013,9 60 0 0,0
26.03.2017 20:00:00 16,3 6,1 15,0 11,9 11,8 13 7 33 18 O 1013,5 60 42 0,0
26.03.2017 19:00:00 19,8 1,2 21,9 11,8 11,8 17 9 34 18 ZZO 1013,0 48 60 0,0
26.03.2017 18:00:00 19,9 4,8 19,2 11,6 11,8 10 6 25 14 ZO 1013,4 52 38 0,0
26.03.2017 17:00:00 18,1 6,0 18,9 11,4 11,8 12 7 24 13 ONO 1014,4 60 9 0,0
26.03.2017 16:00:00 18,8 3,4 19,4 11,2 11,8 13 7 29 16 ZO 1014,5 59 42 0,0
26.03.2017 15:00:00 19,3 5,0 20,9 11,0 11,8 14 8 38 20 Z 1015,0 49 33 0,0
26.03.2017 14:00:00 17,8 4,0 19,4 10,8 11,8 16 9 45 25 Z 1015,7 58 4 0,0
26.03.2017 13:00:00 17,3 4,6 19,2 10,6 11,8 18 10 41 22 Z 1016,0 45 16 0,0
26.03.2017 12:00:00 16,3 5,3 17,2 10,5 11,8 11 6 23 12 ZZO 1015,6 55 25 0,0
26.03.2017 11:00:00 16,2 4,9 17,0 10,4 11,8 5 3 23 12 ZO 1015,7 55 57 0,0
26.03.2017 10:00:00 14,2 5,3 11,9 10,4 11,8 14 8 24 13 Z 1015,4 46 12 0,0
26.03.2017 09:00:00 12,1 4,8 9,2 10,5 11,8 7 4 19 11 Z 1015,4 60 0 0,0
26.03.2017 08:00:00 9,8 4,6 8,4 10,5 11,8 9 5 20 11 ZZO 1014,7 60 0 0,0
26.03.2017 07:00:00 10,7 4,2 8,6 10,6 11,8 4 2 16 8 O 1013,9 60 0 0,0
26.03.2017 06:00:00 10,4 4,1 8,8 10,6 11,8 11 6 30 16 ZZO 1013,7 60 0 0,0
26.03.2017 05:00:00 11,7 3,7 5,1 10,7 11,8 9 5 20 11 ZZW 1013,7 60 0 0,0
26.03.2017 04:00:00 7,8 3,1 5,6 10,8 11,8 8 4 18 10 ONO 1013,8 60 0 0,0
26.03.2017 03:00:00 8,3 3,5 6,9 10,8 11,8 11 6 17 9 O 1014,0 60 0 0,0
26.03.2017 02:00:00 9,3 3,9 7,9 10,9 11,8 6 3 16 9 O 1014,2 60 0 0,0
26.03.2017 01:00:00 9,7 3,4 9,0 10,9 11,8 3 2 25 13 ZO 1014,3 60 0 0,0
26.03.2017 00:00:00 9,9 3,0 8,0 11,0 11,8 14 7 32 17 ZZO 1014,0 60 0 0,0
25.03.2017 23:00:00 8,5 2,9 8,1 11,1 11,8 11 6 27 15 Z 1013,7 60 0 0,0
25.03.2017 22:00:00 8,9 2,9 6,8 11,1 11,8 15 8 37 20 ZZW 1013,0 60 0 0,0
25.03.2017 21:00:00 8,3 2,7 6,8 11,2 11,8 16 9 36 19 Z 1012,4 59 0 0,2
25.03.2017 20:00:00 8,4 3,0 7,5 11,3 11,8 11 6 29 16 Z 1011,8 54 0 0,0
25.03.2017 19:00:00 8,5 2,9 8,8 11,3 11,8 13 7 42 23 ZZW 1010,5 60 0 0,0
25.03.2017 18:00:00 8,5 4,3 8,7 11,2 11,8 15 8 35 19 Z 1010,2 51 20 0,0
25.03.2017 17:00:00 8,4 5,9 8,4 11,2 11,8 12 6 31 17 ZZW 1010,1 38 0 0,4
25.03.2017 16:00:00 8,9 7,0 9,0 11,1 11,8 19 10 36 19 Z 1010,2 8 0 0,0
25.03.2017 15:00:00 10,7 8,1 11,6 10,9 11,8 5 3 13 7 ZO 1009,5 50 3 0,0
25.03.2017 14:00:00 9,8 8,4 10,9 10,9 11,8 4 2 9 5 ZZO 1009,7 26 0 0,0
25.03.2017 13:00:00 9,2 8,7 9,5 10,9 11,8 5 3 10 5 Z 1010,0 19 0 0,0
25.03.2017 12:00:00 8,4 8,0 8,8 10,9 11,8 5 3 9 5 Z 1010,2 5 0 0,4
25.03.2017 11:00:00 8,3 7,7 8,7 10,9 11,8 5 3 8 4 Z 1010,3 3,6 0 0,0
25.03.2017 10:00:00 8,2 7,6 7,9 10,9 11,8 0 0 4 2 N 1010,8 5 0 0,8
25.03.2017 09:00:00 7,6 6,7 7,7 11,0 11,8 2 1 6 3 ZW 1011,2 7 0 0,6
25.03.2017 08:00:00 7,6 6,5 7,8 11,0 11,8 5 3 18 10 NO 1012,0 18 0 0,2
25.03.2017 07:00:00 8,3 6,6 7,8 11,0 11,8 5 3 9 5 NNW 1012,3 19 0 0,0
25.03.2017 06:00:00 8,4 5,7 7,5 11,1 11,9 3 1 5 3 NNW 1012,8 47 0 0,0
25.03.2017 05:00:00 8,0 5,5 7,1 11,1 11,9 3 1 9 5 N 1013,7 42 0 0,0
25.03.2017 04:00:00 7,7 5,3 7,1 11,2 11,8 5 3 9 5 ZZW 1014,8 58 0 0,0
25.03.2017 03:00:00 7,7 6,0 7,2 11,3 11,8 4 2 16 9 ZZW 1015,5 6 0 0,2
25.03.2017 02:00:00 8,4 5,7 7,6 11,3 11,9 14 7 20 11 ONO 1016,4 9 0 0,6
25.03.2017 01:00:00 9,6 6,3 8,2 11,3 11,8 4 2 13 7 ONO 1015,9 24 0 0,0
25.03.2017 00:00:00 9,4 6,3 7,5 11,4 11,9 2 1 3 1 W 1016,1 20 0 0,0
24.03.2017 23:00:00 9,7 5,5 7,5 11,4 11,9 0 0 9 5 N 1016,6 48 0 0,0
24.03.2017 22:00:00 9,9 6,2 9,5 11,4 11,9 5 3 13 7 OZO 1017,0 41 0 0,0
24.03.2017 21:00:00 10,8 6,3 10,8 11,5 11,8 8 4 18 10 NNO 1016,9 50 0 0,0
24.03.2017 20:00:00 10,9 5,0 11,0 11,5 11,9 10 5 20 11 N 1016,8 60 0 0,0
24.03.2017 19:00:00 11,2 3,5 12,0 11,4 11,9 14 8 25 13 N 1016,6 60 0 0,0
24.03.2017 18:00:00 11,6 3,9 13,6 11,3 11,9 19 10 29 16 N 1016,5 56 0 0,0
24.03.2017 17:00:00 12,2 3,7 15,2 11,1 11,9 18 10 27 15 N 1016,8 50 47 0,0
24.03.2017 16:00:00 11,9 3,6 14,7 10,9 11,9 19 10 28 15 N 1016,6 53 34 0,0
24.03.2017 15:00:00 12,5 3,4 15,4 10,7 11,9 13 7 26 14 N 1016,7 53 49 0,0
24.03.2017 14:00:00 11,6 5,7 15,5 10,5 11,9 14 8 22 12 N 1017,2 43 33 0,0
24.03.2017 13:00:00 11,4 4,4 13,0 10,4 11,9 14 8 22 12 N 1017,7 40 21 0,0
24.03.2017 12:00:00 11,5 3,0 11,6 10,3 11,9 8 4 16 9 N 1017,3 50 18 0,0
24.03.2017 11:00:00 10,9 2,7 10,4 10,3 11,9 3 1 8 5 N 1016,5 57 14 0,0
24.03.2017 10:00:00 9,0 2,5 7,2 10,4 11,9 2 1 9 5 WZW 1016,4 60 21 0,0
24.03.2017 09:00:00 7,2 3,2 5,5 10,4 11,9 5 3 10 5 ZO 1015,7 60 0 0,0
24.03.2017 08:00:00 5,4 2,9 4,8 10,5 11,9 6 3 10 5 Z 1015,0 37 0 0,0
24.03.2017 07:00:00 5,2 2,7 4,1 10,6 11,9 10 5 13 7 O 1014,6 59 0 0,0
24.03.2017 06:00:00 5,8 2,3 5,6 10,6 12,0 5 3 16 9 OZO 1013,9 58 0 0,0
24.03.2017 05:00:00 6,0 2,1 3,6 10,7 11,9 11 6 22 12 O 1013,8 20 0 0,0
24.03.2017 04:00:00 6,4 0,5 1,9 10,8 11,9 5 3 16 9 Z 1013,8 45 0 0,0
24.03.2017 03:00:00 6,5 2,4 1,9 10,9 12,0 3 2 13 7 ONO 1013,7 51 0 0,0
24.03.2017 02:00:00 6,9 2,0 4,3 11,0 12,0 3 1 11 6 O 1013,2 41 0 0,0
24.03.2017 01:00:00 7,1 2,6 5,6 11,1 12,0 7 4 9 5 O 1013,1 45 0 0,0
24.03.2017 00:00:00 7,4 3,1 6,1 11,1 12,0 5 3 13 7 O 1012,9 55 0 0,0
23.03.2017 23:00:00 7,5 2,2 5,1 11,2 12,0 6 3 10 5 OZO 1012,5 53 0 0,0
23.03.2017 22:00:00 8,5 0,7 5,1 11,3 12,0 3 2 16 8 O 1011,9 58 0 0,0
23.03.2017 21:00:00 - - - - - - - - - - - - - -

tt = temperatuur
td = dauwpunt
tt 5cm = temperatuur 5cm
tt -20cm = temperatuur -20cm
tt -100cm = temperatuur -100cm
ff = windsnelheid
fx = windstoten
dd = windrichting
ppp = luchtdruk
vv = zicht
sd = Zonneschijnduur
rr = neerslag

Weerstations in de omgeving